パンスターズ彗星

C/2025 R3 ( PanSTARRS )

English version
Home page
Updated on August 19, 2026

---------------------------------------------------------------------

・ プロフィール

発見日 2025年9月8日
発見光度 19.8等
発見者 Pan-STARRS 2 telescope (Haleakala)

・ 写真集

・ 軌道要素

Epoch 2026 June 9.0 TT = JDT 2461200.5
T 2026 Apr. 19.89380 TT                                 Pike
q   0.4986192            (2000.0)            P               Q
z  -0.0007139      Peri.  162.22541     -0.63450286     -0.57743653
 +/-0.0000009      Node    38.69449     -0.77053948     +0.52470301
e   1.0003559      Incl.  124.73131     -0.06062203     -0.62550284
From 905 observations 2025 Sept. 7-2026 June 25, mean residual 0".7.

・ 星図

・ 光度変化

        m1 = 7.0 + 5 logΔ + 18.0 log r         [   ,-64]  (              〜2026年 2月14日)
        m1 = 8.0 + 5 logΔ + 10.5 log r(t - 3)  [-64, 40]  (2026年 2月14日〜2026年 5月29日)
        m1 = 8.5 + 5 logΔ + 13.0 log r         [ 40,   ]  (2026年 5月29日〜              )

---------------------------------------------------------------------

軌道要素はM.P.E.C. 2026-N12に掲載されたものです。
星図はステラナビゲータ Ver.11 (アストロアーツ) で作成したものです。
光度グラフはComet for Windowsで作成したものです。

---------------------------------------------------------------------

Copyright(C) Seiichi Yoshida (comet@aerith.net). All rights reserved.